#timestamp,LO_Frequency,Hit 
1505023215.5,286046994.7,N
1505023235.3,286046992.0,N
1505023255.1,286046998.0,N
1505023275.9,286046996.7,N
1505023295.7,286046993.8,N
1505023315.5,286046991.7,N
1505023335.4,286046993.1,N
1505023355.2,286046998.4,N
1505023375.0,286047004.7,N
1505023375.9,286047004.7,N
1505023395.8,286047011.7,P
1505023415.6,286047019.9,N
1505023435.4,286047025.2,N
1505023455.3,286047023.8,N
1505023475.1,286047027.5,N
1505023476.0,286047027.5,N
1505023495.8,286047027.1,N
1505023515.7,286047029.8,N
1505023535.5,286047028.5,N
1505023555.3,286047031.2,P
1505023575.2,286047009.9,N
1505023595.9,286047010.9,N
1505023615.7,286047014.8,N
1505023635.6,286047011.3,N
1505023655.4,286047013.8,N
1505023675.2,286047011.5,N
1505023695.0,286047015.3,N
1505023695.9,286047015.3,N
1505023715.8,286047016.2,N
1505023735.6,286047018.6,P
1505023755.4,286047005.2,P
1505023775.3,286047004.5,N
1505023795.1,286047006.9,N
1505023815.8,286047004.5,N
1505023835.7,286047006.6,N
1505023855.5,286047006.3,N
1505023875.3,286047008.0,N
1505023895.2,286047012.9,N
1505023915.9,286047011.7,N
1505023935.7,286047009.9,N
1505023955.6,286047011.4,N
1505023975.4,286047013.4,P
1505023995.2,286047002.9,N
1505024015.1,286047009.1,N
1505024016.0,286047009.1,N
1505024035.8,286047009.2,N
1505024055.6,286047007.9,N
1505024075.5,286047009.2,P
1505024095.3,286046997.2,P
1505024115.1,286047002.8,N
1505024135.9,286047000.5,N
1505024155.7,286047002.0,N
1505024175.5,286046998.5,N
1505024195.4,286046999.8,N
1505024215.2,286046998.6,N
1505024235.0,286047003.7,N
1505024235.9,286047003.7,N
1505024255.8,286047001.3,N
1505024275.6,286047004.1,N
1505024295.4,286046998.1,N
1505024315.3,286047002.7,N
1505024335.1,286047002.6,N
1505024336.0,286047002.6,N
1505024355.8,286047002.7,N
1505024375.7,286047001.4,N
1505024395.5,286047003.6,N
1505024415.3,286047002.6,N
1505024435.2,286047000.1,N
1505024455.9,286047004.3,N
1505024475.7,286047004.9,N
1505024495.5,286047004.2,N
1505024515.4,286047004.0,N
1505024535.2,286047002.2,N
1505024555.0,286047002.4,N
1505024555.9,286047002.4,N
1505024575.8,286047001.7,N
1505024595.6,286047005.2,N
1505024615.4,286047004.9,N
1505024635.3,286047004.9,N
1505024655.1,286047004.5,N
1505024656.0,286047004.5,N
1505024675.8,286047005.1,N
1505024695.7,286047006.6,P
1505024715.5,286047004.3,N
1505024735.3,286047004.2,N
1505024755.2,286047005.5,P
1505024775.0,286047004.1,P
1505024775.9,286047004.1,P
1505024795.7,286047000.1,N
1505024815.6,286047002.3,N
1505024835.4,286047002.1,N
1505024855.2,286047004.3,N
1505024875.1,286046999.9,N
1505024876.0,286046999.9,N
1505024895.8,286047001.7,N
1505024915.6,286047003.9,N
1505024935.5,286047005.2,N
1505024955.3,286047006.9,P
1505024975.1,286047002.3,N
1505024995.9,286047001.8,N
1505025015.7,286047003.1,N
1505025035.5,286047003.8,N
1505025055.4,286047003.4,N
1505025075.2,286047003.4,N
1505025095.0,286047004.4,P
1505025095.9,286047004.4,P
1505025115.8,286046999.2,N
1505025135.6,286046999.0,N
1505025155.4,286046999.2,N
1505025175.3,286046995.0,N
1505025195.1,286046995.7,N
1505025215.8,286046995.1,N
1505025235.7,286046996.0,N
1505025255.5,286046994.2,N
1505025275.3,286046992.0,N
1505025295.2,286046997.7,N
1505025315.9,286046994.9,N
1505025335.7,286046999.1,N
1505025355.5,286046995.0,N
1505025375.4,286046997.3,N
1505025395.2,286046995.7,N
1505025415.0,286046993.5,N
1505025415.9,286046993.5,N
1505025435.8,286046992.3,N
1505025455.6,286046992.2,N
1505025475.4,286046992.6,N
1505025495.3,286046990.9,N
1505025515.1,286046991.7,N
1505025535.8,286046992.7,N
1505025555.7,286046996.4,N
1505025575.5,286046996.3,N
1505025595.3,286046994.6,N
1505025615.2,286046996.4,N
1505025635.9,286046995.2,N
1505025655.7,286046993.9,N
1505025675.6,286046992.2,N
1505025695.4,286046995.5,N
1505025715.2,286046996.6,N
1505025735.0,286046997.5,N
1505025735.9,286046997.5,N
1505025755.8,286046996.7,N
1505025775.6,286046998.6,N
1505025795.4,286046998.6,N
1505025815.3,286046995.9,N
1505025835.1,286046997.5,N
1505025855.8,286046997.7,N
1505025875.7,286046996.5,N
1505025895.5,286046998.6,N
1505025915.3,286046997.7,N
1505025935.2,286046998.0,N
1505025955.9,286046994.3,N
1505025975.7,286046994.3,N
1505025995.6,286046991.7,P
1505026015.4,286047002.3,N
1505026035.2,286047002.6,N
1505026055.1,286047002.0,N
1505026056.0,286047002.0,N
1505026075.8,286047000.0,N
1505026095.6,286047001.3,N
1505026115.5,286047003.4,N
1505026135.3,286047002.1,N
1505026155.1,286046999.8,N
1505026175.9,286047003.1,N
1505026195.7,286047001.7,N
1505026215.5,286046998.8,N
1505026235.3,286046999.4,N
1505026255.2,286046999.1,N
1505026275.0,286046996.5,N
1505026275.9,286046996.5,N
1505026295.7,286046999.0,N
1505026315.6,286046995.4,N
1505026335.4,286046998.6,N
1505026355.2,286046999.1,N
1505026375.1,286047001.0,N
1505026376.0,286047001.0,N
1505026395.8,286047000.4,N
1505026415.6,286047001.4,N
1505026435.5,286046996.7,N
1505026455.3,286046996.9,N
1505026475.1,286046998.0,N
1505026495.9,286046999.5,N
1505026515.7,286046998.8,N
1505026535.5,286047000.9,N
1505026555.3,286047000.0,N
1505026575.2,286047005.3,N
1505026595.0,286047001.7,N
1505026595.9,286047001.7,N
1505026615.7,286047002.7,N
1505026635.6,286047002.5,N
1505026655.4,286047001.4,N
1505026675.2,286047002.3,N
1505026695.1,286047000.7,N
1505026696.0,286047000.7,N
1505026715.8,286047002.8,N
1505026735.6,286047001.3,N
1505026755.5,286047004.1,N
1505026775.3,286047002.3,N
1505026795.1,286047000.5,N
